Location: *
(2.5500°S, 65.9667°W)
Time: 17:31:27
(UTC+00:00)

A-11 Canister half - Pass Details

Date: 16 April 2024
Orbit: 1525 x 1683 km, 47.3° (Epoch: 21 May)

Event Time Altitude Azimuth Distance (km) Brightness Sun altitude
Exits shadow 07:46:35 65° 148° (SSE) 1,740 9.1 -39.0°
Maximum altitude 07:47:10 66° 129° (SE) 1,730 9.2 -38.9°
Drops below altitude 10° 07:56:59 10° 49° (NE) 3,888 11.7 -36.5°
Sets 08:00:11 0° 46° (NE) 4,890 12.4 -35.7°
